Location: Drouwen
(52.9559°N, 6.7974°E)
Time: 16:23:38
(UTC+00:00)

Cosmos 1980 - Pass Details

Date: 15 May 2026
Orbit: 838 x 846 km, 71.0° (Epoch: 10 June)

Event Time Altitude Azimuth Distance (km) Brightness Sun altitude
Rises 22:39:30 0° 328° (NNW) 3,407 8.2 -17.2°
Reaches altitude 10° 22:41:58 10° 330° (NNW) 2,470 7.3 -17.3°
Maximum altitude 22:47:38 76° 56° (ENE) 874 3.8 -17.4°
Enters shadow 22:51:06 25° 139° (SE) 1,661 4.7 -17.5°
